{"data":{"norad_id":67505,"epoch":"2026-05-24T23:37:00.170400Z","epoch_age_seconds":86749,"freshness":"FRESH","line1":"1 67505U 26012N   26144.98402975  .00020975  00000+0  76967-3 0  9995","line2":"2 67505  43.0005 243.2227 0002223 269.4027  90.6569 15.27574333 19430","mean_motion":15.27574333,"eccentricity":0.0002223,"inclination_deg":43.0005,"raan_deg":243.2227,"arg_perigee_deg":269.4027,"mean_anomaly_deg":90.6569,"bstar":0.00076967,"rev_number":1943,"period_min":94.267098424729,"perigee_km":481.54081968743,"apogee_km":484.59131057018,"semimajor_km":6861.2030651288,"source":"CELESTRAK","updated_at":"2026-05-25T13:38:21.568942Z"}}